"Pseudo-MPEC" for P11U7c8

Created 2024 May 20 22:22:06 UT using Find_Orb

Click here for an explanation of pseudo-MPECs

 
 Astrometry: 
     P11U7c8* C2024 05 04/]W`TZLAstrometryJYaPCuItRS.H*'aK\1$7redacted;ZcFqu,F51
     P11U7c8  C2024 05 04KU3P6F7figjaclickaBnIDRP,#2q'#REJ#t0))CYsiJ`27*sRg!KF51
     P11U7c8  C2024 05 04t+1wq(Yu4$ElR/u[S.Uv2o/JS\3$X8xc#O5`.0N2/@oTq#/H6X1:F51
     P11U7c8  C2024 05 04empxK(7#F:S[akONIlr?Fjv/lherefA#,JforQ_vYvy%j,`En+tBF51
     P11U7c8  C2024 05 04_whXimxnYtq:Akeq$;K*explanation,WD+%*Y!iVjGsY#f1qy+BF51

Station data:
(F51) Pan-STARRS 1, Haleakala  (N20.707234 W156.255910)  US/Hawaii.
   Observers J. Bulger, T. Lowe, A. Schultz, M. Willman. Measurers K.
   Chambers, S. Chastel, T. de Boer, L. Denneau, J. Fairlamb, H. Flewelling,
   M. Huber, C.-C. Lin, E. Magnier, Y. Ramanjooloo, R. Wainscoat, R. Weryk.
   1.8-m Ritchey-Chrétien + CCD.

Orbital elements:  P11U7c8
   Perihelion 2024 Feb 22.36619 +/- 67.2 TT =  8:47:19 (JD 2460362.86619)
Epoch 2024 May  4.0 TT = JDT 2460434.5   Earth MOID: 0.0545   Ve: 0.0998
M   8.90579281 +/- 35               Ma: 0.0217                   AutoNEOCP
n   0.12432387 +/- 0.206            Peri.  252.88117 +/- 60
a   3.97587768 +/- 4.39             Node   223.65856 +/- 6
e   0.8460737 +/- 0.272             Incl.   30.67842 +/- 17
P   7.93                   H 22.22  G  0.15   U 11.7  SR
q 0.61199186 +/- 0.386    Q 7.33976349 +/- 29             (J2000 ecliptic)
From 5 observations 2024 May 4 (2.4 hr); mean residual 0".11
Residuals in arcseconds: 
240504 F51  .01+  .03-    240504 F51  .09+  .17-    240504 F51  .11-  .08+    
240504 F51  .08-  .18+    240504 F51  .10+  .06-    

Ephemerides (geocentric):
Date (UTC) HH   RA             Dec           delta  r     elong  mag " sig PA
---- --------  ------------   ------------  ------ ------ -----  --- --------
2024 05 20 22  13 49 57.685   -06 02 25.42  .68036 1.6268 147.3 23.4 353'   2
2024 05 20 23  13 49 58.163   -06 01 25.43  .68111 1.6273 147.3 23.4 355'   2
2024 05 21 00  13 49 58.644   -06 00 25.60  .68186 1.6278 147.2 23.4 356'   2
2024 05 21 01  13 49 59.127   -05 59 25.94  .68261 1.6284 147.2 23.4 358'   2
2024 05 21 02  13 49 59.612   -05 58 26.43  .68337 1.6289 147.1 23.4 359'   2
2024 05 21 03  13 50 00.101   -05 57 27.09  .68412 1.6294 147.1 23.5 361'   2
2024 05 21 04  13 50 00.592   -05 56 27.90  .68487 1.6300 147.1 23.5 362'   2
2024 05 21 05  13 50 01.085   -05 55 28.88  .68562 1.6305 147.0 23.5 364'   2
2024 05 21 06  13 50 01.581   -05 54 30.01  .68637 1.6310 147.0 23.5 365'   2
2024 05 21 07  13 50 02.079   -05 53 31.30  .68713 1.6316 146.9 23.5 367'   2
2024 05 21 08  13 50 02.580   -05 52 32.76  .68788 1.6321 146.9 23.5 369'   2
2024 05 21 09  13 50 03.084   -05 51 34.36  .68863 1.6326 146.8 23.5 370'   2
2024 05 21 10  13 50 03.590   -05 50 36.13  .68939 1.6332 146.8 23.5 372'   2
2024 05 21 11  13 50 04.099   -05 49 38.05  .69014 1.6337 146.7 23.5 373'   2
2024 05 21 12  13 50 04.610   -05 48 40.13  .69090 1.6342 146.7 23.5 375'   2
2024 05 21 13  13 50 05.124   -05 47 42.37  .69165 1.6347 146.6 23.5 376'   2
2024 05 21 14  13 50 05.640   -05 46 44.76  .69240 1.6353 146.6 23.5 378'   2
2024 05 21 15  13 50 06.159   -05 45 47.31  .69316 1.6358 146.6 23.5 379'   2
2024 05 21 16  13 50 06.680   -05 44 50.01  .69391 1.6363 146.5 23.5 381'   2
2024 05 21 17  13 50 07.204   -05 43 52.87  .69467 1.6369 146.5 23.5 383'   2
2024 05 21 18  13 50 07.731   -05 42 55.88  .69543 1.6374 146.4 23.5 384'   2
2024 05 21 19  13 50 08.260   -05 41 59.04  .69618 1.6379 146.4 23.5 386'   2
2024 05 21 20  13 50 08.791   -05 41 02.36  .69694 1.6385 146.3 23.5 387'   2
2024 05 21 21  13 50 09.325   -05 40 05.83  .69770 1.6390 146.3 23.5 389'   2
2024 05 21 22  13 50 09.861   -05 39 09.45  .69845 1.6395 146.2 23.5 390'   2
2024 05 21 23  13 50 10.400   -05 38 13.23  .69921 1.6401 146.2 23.5 392'   1
2024 05 22 00  13 50 10.941   -05 37 17.15  .69997 1.6406 146.2 23.5 394'   1
2024 05 22 01  13 50 11.485   -05 36 21.23  .70073 1.6411 146.1 23.5 395'   1
2024 05 22 02  13 50 12.032   -05 35 25.46  .70148 1.6416 146.1 23.5 397'   1
2024 05 22 03  13 50 12.580   -05 34 29.84  .70224 1.6422 146.0 23.5 398'   1
2024 05 22 04  13 50 13.132   -05 33 34.37  .70300 1.6427 146.0 23.5 400'   1
2024 05 22 05  13 50 13.685   -05 32 39.05  .70376 1.6432 145.9 23.5 402'   1
2024 05 22 06  13 50 14.241   -05 31 43.88  .70452 1.6438 145.9 23.5 403'   1
2024 05 22 07  13 50 14.800   -05 30 48.86  .70528 1.6443 145.8 23.6 405'   1
2024 05 22 08  13 50 15.361   -05 29 53.99  .70604 1.6448 145.8 23.6 406'   1
2024 05 22 09  13 50 15.925   -05 28 59.26  .70680 1.6454 145.7 23.6 408'   1
2024 05 22 10  13 50 16.491   -05 28 04.69  .70756 1.6459 145.7 23.6 409'   1
2024 05 22 11  13 50 17.059   -05 27 10.26  .70832 1.6464 145.7 23.6 411'   1
2024 05 22 12  13 50 17.630   -05 26 15.97  .70908 1.6469 145.6 23.6 413'   1
2024 05 22 13  13 50 18.203   -05 25 21.84  .70984 1.6475 145.6 23.6 414'   1
2024 05 22 14  13 50 18.779   -05 24 27.85  .71061 1.6480 145.5 23.6 416'   1
2024 05 22 15  13 50 19.357   -05 23 34.00  .71137 1.6485 145.5 23.6 418'   1
2024 05 22 16  13 50 19.938   -05 22 40.31  .71213 1.6491 145.4 23.6 419'   1
2024 05 22 17  13 50 20.521   -05 21 46.75  .71289 1.6496 145.4 23.6 421'   1
2024 05 22 18  13 50 21.106   -05 20 53.35  .71366 1.6501 145.3 23.6 422'   1
2024 05 22 19  13 50 21.694   -05 20 00.08  .71442 1.6507 145.3 23.6 424'   1
2024 05 22 20  13 50 22.284   -05 19 06.96  .71518 1.6512 145.3 23.6 426'   1
2024 05 22 21  13 50 22.877   -05 18 13.99  .71595 1.6517 145.2 23.6 427'   1